Year,Month,Day,Hour,Minute,Value (Times are PST for temperature in C)
2010,06,16,00,00,12.40
2010,06,16,00,01,12.40
2010,06,16,00,02,12.40
2010,06,16,00,03,12.40
2010,06,16,00,04,12.40
2010,06,16,00,05,12.40
2010,06,16,00,06,12.40
2010,06,16,00,07,12.50
2010,06,16,00,08,12.50
2010,06,16,00,09,12.50
2010,06,16,00,10,12.40
2010,06,16,00,11,12.40
2010,06,16,00,12,12.40
2010,06,16,00,13,12.40
2010,06,16,00,14,12.40
2010,06,16,00,15,12.40
2010,06,16,00,16,12.40
2010,06,16,00,17,12.40
2010,06,16,00,18,12.40
2010,06,16,00,19,12.40
2010,06,16,00,20,12.40
2010,06,16,00,21,12.40
2010,06,16,00,22,12.40
2010,06,16,00,23,12.40
2010,06,16,00,24,12.40
2010,06,16,00,25,12.40
2010,06,16,00,26,12.40
2010,06,16,00,27,12.40
2010,06,16,00,28,12.40
2010,06,16,00,29,12.40
2010,06,16,00,30,12.40
2010,06,16,00,31,12.40
2010,06,16,00,32,12.40
2010,06,16,00,33,12.40
2010,06,16,00,34,12.40
2010,06,16,00,35,12.40
2010,06,16,00,36,12.40
2010,06,16,00,37,12.40
2010,06,16,00,38,12.30
2010,06,16,00,39,12.30
2010,06,16,00,40,12.30
2010,06,16,00,41,12.30
2010,06,16,00,42,12.30
2010,06,16,00,43,12.30
2010,06,16,00,44,12.30
2010,06,16,00,45,12.30
2010,06,16,00,46,12.30
2010,06,16,00,47,12.30
2010,06,16,00,48,12.30
2010,06,16,00,49,12.30
2010,06,16,00,50,12.20
2010,06,16,00,51,12.20
2010,06,16,00,52,12.20
2010,06,16,00,53,12.20
2010,06,16,00,54,12.20
2010,06,16,00,55,12.20
2010,06,16,00,56,12.20
2010,06,16,00,57,12.20
2010,06,16,00,58,12.20
2010,06,16,00,59,12.10
2010,06,16,01,00,12.10
2010,06,16,01,01,12.10
2010,06,16,01,02,12.10
2010,06,16,01,03,12.10
2010,06,16,01,04,12.10
2010,06,16,01,05,12.10
2010,06,16,01,06,12.10
2010,06,16,01,07,12.10
2010,06,16,01,08,12.10
2010,06,16,01,09,12.00
2010,06,16,01,10,12.00
2010,06,16,01,11,12.00
2010,06,16,01,12,12.00
2010,06,16,01,13,11.90
2010,06,16,01,14,11.90
2010,06,16,01,15,11.90
2010,06,16,01,16,11.90
2010,06,16,01,17,11.90
2010,06,16,01,18,11.80
2010,06,16,01,19,11.80
2010,06,16,01,20,11.80
2010,06,16,01,21,11.80
2010,06,16,01,22,11.80
2010,06,16,01,23,11.80
2010,06,16,01,24,11.80
2010,06,16,01,25,11.80
2010,06,16,01,26,11.80
2010,06,16,01,27,11.80
2010,06,16,01,28,11.80
2010,06,16,01,29,11.80
2010,06,16,01,30,11.80
2010,06,16,01,31,11.80
2010,06,16,01,32,11.80
2010,06,16,01,33,11.80
2010,06,16,01,34,11.80
2010,06,16,01,35,11.80
2010,06,16,01,36,11.80
2010,06,16,01,37,11.80
2010,06,16,01,38,11.80
2010,06,16,01,39,11.80
2010,06,16,01,40,11.80
2010,06,16,01,41,11.80
2010,06,16,01,42,11.80
2010,06,16,01,43,11.80
2010,06,16,01,44,11.80
2010,06,16,01,45,11.80
2010,06,16,01,46,11.80
2010,06,16,01,47,11.80
2010,06,16,01,48,11.80
2010,06,16,01,49,11.80
2010,06,16,01,50,11.80
2010,06,16,01,51,11.80
2010,06,16,01,52,11.80
2010,06,16,01,53,11.80
2010,06,16,01,54,11.80
2010,06,16,01,55,11.80
2010,06,16,01,56,11.80
2010,06,16,01,57,11.80
2010,06,16,01,58,11.80
2010,06,16,01,59,11.80
2010,06,16,02,00,11.80
2010,06,16,02,01,11.80
2010,06,16,02,02,11.80
2010,06,16,02,03,11.80
2010,06,16,02,04,11.80
2010,06,16,02,05,11.80
2010,06,16,02,06,11.80
2010,06,16,02,07,11.80
2010,06,16,02,08,11.70
2010,06,16,02,09,11.70
2010,06,16,02,10,11.70
2010,06,16,02,11,11.70
2010,06,16,02,12,11.70
2010,06,16,02,13,11.70
2010,06,16,02,14,11.70
2010,06,16,02,15,11.70
2010,06,16,02,16,11.70
2010,06,16,02,17,11.70
2010,06,16,02,18,11.70
2010,06,16,02,19,11.70
2010,06,16,02,20,11.60
2010,06,16,02,21,11.60
2010,06,16,02,22,11.60
2010,06,16,02,23,11.60
2010,06,16,02,24,11.60
2010,06,16,02,25,11.60
2010,06,16,02,26,11.60
2010,06,16,02,27,11.60
2010,06,16,02,28,11.60
2010,06,16,02,29,11.60
2010,06,16,02,30,11.50
2010,06,16,02,31,11.50
2010,06,16,02,32,11.50
2010,06,16,02,33,11.50
2010,06,16,02,34,11.50
2010,06,16,02,35,11.50
2010,06,16,02,36,11.40
2010,06,16,02,37,11.40
2010,06,16,02,38,11.40
2010,06,16,02,39,11.40
2010,06,16,02,40,11.40
2010,06,16,02,41,11.40
2010,06,16,02,42,11.40
2010,06,16,02,43,11.40
2010,06,16,02,44,11.40
2010,06,16,02,45,11.40
2010,06,16,02,46,11.40
2010,06,16,02,47,11.40
2010,06,16,02,48,11.40
2010,06,16,02,49,11.40
2010,06,16,02,50,11.40
2010,06,16,02,51,11.40
2010,06,16,02,52,11.40
2010,06,16,02,53,11.40
2010,06,16,02,54,11.40
2010,06,16,02,55,11.40
2010,06,16,02,56,11.40
2010,06,16,02,57,11.40
2010,06,16,02,58,11.40
2010,06,16,02,59,11.40
2010,06,16,03,00,11.40
2010,06,16,03,01,11.40
2010,06,16,03,02,11.40
2010,06,16,03,03,11.40
2010,06,16,03,04,11.40
2010,06,16,03,05,11.40
2010,06,16,03,06,11.40
2010,06,16,03,07,11.40
2010,06,16,03,08,11.40
2010,06,16,03,09,11.40
2010,06,16,03,10,11.40
2010,06,16,03,11,11.40
2010,06,16,03,12,11.40
2010,06,16,03,13,11.40
2010,06,16,03,14,11.40
2010,06,16,03,15,11.40
2010,06,16,03,16,11.40
2010,06,16,03,17,11.40
2010,06,16,03,18,11.40
2010,06,16,03,19,11.40
2010,06,16,03,20,11.40
2010,06,16,03,21,11.40
2010,06,16,03,22,11.40
2010,06,16,03,23,11.40
2010,06,16,03,24,11.40
2010,06,16,03,25,11.40
2010,06,16,03,26,11.40
2010,06,16,03,27,11.40
2010,06,16,03,28,11.40
2010,06,16,03,29,11.40
2010,06,16,03,30,11.40
2010,06,16,03,31,11.40
2010,06,16,03,32,11.40
2010,06,16,03,33,11.40
2010,06,16,03,34,11.30
2010,06,16,03,35,11.30
2010,06,16,03,36,11.30
2010,06,16,03,37,11.30
2010,06,16,03,38,11.30
2010,06,16,03,39,11.30
2010,06,16,03,40,11.30
2010,06,16,03,41,11.40
2010,06,16,03,42,11.40
2010,06,16,03,43,11.40
2010,06,16,03,44,11.40
2010,06,16,03,45,11.40
2010,06,16,03,46,11.40
2010,06,16,03,47,11.40
2010,06,16,03,48,11.40
2010,06,16,03,49,11.40
2010,06,16,03,50,11.40
2010,06,16,03,51,11.40
2010,06,16,03,52,11.40
2010,06,16,03,53,11.50
2010,06,16,03,54,11.50
2010,06,16,03,55,11.50
2010,06,16,03,56,11.50
2010,06,16,03,57,11.60
2010,06,16,03,58,11.60
2010,06,16,03,59,11.60
2010,06,16,04,00,11.60
2010,06,16,04,01,11.60
2010,06,16,04,02,11.60
2010,06,16,04,03,11.60
2010,06,16,04,04,11.60
2010,06,16,04,05,11.60
2010,06,16,04,06,11.60
2010,06,16,04,07,11.60
2010,06,16,04,08,11.50
2010,06,16,04,09,11.50
2010,06,16,04,10,11.50
2010,06,16,04,11,11.50
2010,06,16,04,12,11.50
2010,06,16,04,13,11.50
2010,06,16,04,14,11.50
2010,06,16,04,15,11.50
2010,06,16,04,16,11.50
2010,06,16,04,17,11.50
2010,06,16,04,18,11.50
2010,06,16,04,19,11.40
2010,06,16,04,20,11.40
2010,06,16,04,21,11.40
2010,06,16,04,22,11.40
2010,06,16,04,23,11.40
2010,06,16,04,24,11.30
2010,06,16,04,25,11.30
2010,06,16,04,26,11.30
2010,06,16,04,27,11.30
2010,06,16,04,28,11.30
2010,06,16,04,29,11.20
2010,06,16,04,30,11.20
2010,06,16,04,31,11.20
2010,06,16,04,32,11.20
2010,06,16,04,33,11.20
2010,06,16,04,34,11.20
2010,06,16,04,35,11.20
2010,06,16,04,36,11.20
2010,06,16,04,37,11.20
2010,06,16,04,38,11.20
2010,06,16,04,39,11.20
2010,06,16,04,40,11.20
2010,06,16,04,41,11.20
2010,06,16,04,42,11.20
2010,06,16,04,43,11.20
2010,06,16,04,44,11.20
2010,06,16,04,45,11.20
2010,06,16,04,46,11.20
2010,06,16,04,47,11.20
2010,06,16,04,48,11.20
2010,06,16,04,49,11.10
2010,06,16,04,50,11.10
2010,06,16,04,51,11.10
2010,06,16,04,52,11.10
2010,06,16,04,53,11.10
2010,06,16,04,54,11.10
2010,06,16,04,55,11.10
2010,06,16,04,56,11.10
2010,06,16,04,57,11.10
2010,06,16,04,58,11.10
2010,06,16,04,59,11.10
2010,06,16,05,00,11.10
2010,06,16,05,01,11.10
2010,06,16,05,02,11.00
2010,06,16,05,03,11.00
2010,06,16,05,04,11.00
2010,06,16,05,05,10.90
2010,06,16,05,06,10.90
2010,06,16,05,07,10.90
2010,06,16,05,08,10.80
2010,06,16,05,09,10.80
2010,06,16,05,10,10.80
2010,06,16,05,11,10.70
2010,06,16,05,12,10.70
2010,06,16,05,13,10.70
2010,06,16,05,14,10.70
2010,06,16,05,15,10.60
2010,06,16,05,16,10.60
2010,06,16,05,17,10.60
2010,06,16,05,18,10.60
2010,06,16,05,19,10.60
2010,06,16,05,20,10.50
2010,06,16,05,21,10.50
2010,06,16,05,22,10.40
2010,06,16,05,23,10.40
2010,06,16,05,24,10.40
2010,06,16,05,25,10.30
2010,06,16,05,26,10.30
2010,06,16,05,27,10.30
2010,06,16,05,28,10.30
2010,06,16,05,29,10.30
2010,06,16,05,30,10.30
2010,06,16,05,31,10.30
2010,06,16,05,32,10.30
2010,06,16,05,33,10.30
2010,06,16,05,34,10.30
2010,06,16,05,35,10.30
2010,06,16,05,36,10.20
2010,06,16,05,37,10.20
2010,06,16,05,38,10.20
2010,06,16,05,39,10.20
2010,06,16,05,40,10.20
2010,06,16,05,41,10.10
2010,06,16,05,42,10.10
2010,06,16,05,43,10.10
2010,06,16,05,44,10.10
2010,06,16,05,45,10.10
2010,06,16,05,46,10.00
2010,06,16,05,47,10.00
2010,06,16,05,48,10.00
2010,06,16,05,49,10.00
2010,06,16,05,50,9.90
2010,06,16,05,51,9.90
2010,06,16,05,52,9.90
2010,06,16,05,53,9.90
2010,06,16,05,54,9.90
2010,06,16,05,55,9.90
2010,06,16,05,56,9.80
2010,06,16,05,57,9.80
2010,06,16,05,58,9.80
2010,06,16,05,59,9.80
2010,06,16,06,00,9.80
2010,06,16,06,01,9.80
2010,06,16,06,02,9.80
2010,06,16,06,03,9.80
2010,06,16,06,04,9.80
2010,06,16,06,05,9.80
2010,06,16,06,06,9.80
2010,06,16,06,07,9.80
2010,06,16,06,08,9.80
2010,06,16,06,09,9.80
2010,06,16,06,10,9.80
2010,06,16,06,11,9.80
2010,06,16,06,12,9.80
2010,06,16,06,13,9.80
2010,06,16,06,14,9.80
2010,06,16,06,15,9.80
2010,06,16,06,16,9.90
2010,06,16,06,17,9.90
2010,06,16,06,18,9.90
2010,06,16,06,19,9.90
2010,06,16,06,20,9.90
2010,06,16,06,21,9.90
2010,06,16,06,22,9.90
2010,06,16,06,23,9.80
2010,06,16,06,24,9.80
2010,06,16,06,25,9.80
2010,06,16,06,26,9.80
2010,06,16,06,27,9.80
2010,06,16,06,28,9.80
2010,06,16,06,29,9.80
2010,06,16,06,30,9.90
2010,06,16,06,31,9.90
2010,06,16,06,32,9.90
2010,06,16,06,33,9.90
2010,06,16,06,34,9.90
2010,06,16,06,35,9.90
2010,06,16,06,36,9.90
2010,06,16,06,37,10.00
2010,06,16,06,38,10.00
2010,06,16,06,39,10.00
2010,06,16,06,40,10.10
2010,06,16,06,41,10.10
2010,06,16,06,42,10.10
2010,06,16,06,43,10.10
2010,06,16,06,44,10.10
2010,06,16,06,45,10.10
2010,06,16,06,46,10.10
2010,06,16,06,47,10.10
2010,06,16,06,48,10.10
2010,06,16,06,49,10.10
2010,06,16,06,50,10.10
2010,06,16,06,51,10.10
2010,06,16,06,52,10.10
2010,06,16,06,53,10.10
2010,06,16,06,54,10.10
2010,06,16,06,55,10.10
2010,06,16,06,56,10.20
2010,06,16,06,57,10.20
2010,06,16,06,58,10.30
2010,06,16,06,59,10.30
2010,06,16,07,00,10.30
2010,06,16,07,01,10.40
2010,06,16,07,02,10.40
2010,06,16,07,03,10.40
2010,06,16,07,04,10.40
2010,06,16,07,05,10.40
2010,06,16,07,06,10.50
2010,06,16,07,07,10.50
2010,06,16,07,08,10.50
2010,06,16,07,09,10.50
2010,06,16,07,10,10.60
2010,06,16,07,11,10.60
2010,06,16,07,12,10.60
2010,06,16,07,13,10.60
2010,06,16,07,14,10.60
2010,06,16,07,15,10.60
2010,06,16,07,16,10.60
2010,06,16,07,17,10.60
2010,06,16,07,18,10.60
2010,06,16,07,19,10.60
2010,06,16,07,20,10.60
2010,06,16,07,21,10.70
2010,06,16,07,22,10.70
2010,06,16,07,23,10.70
2010,06,16,07,24,10.70
2010,06,16,07,25,10.70
2010,06,16,07,26,10.80
2010,06,16,07,27,10.80
2010,06,16,07,28,10.80
2010,06,16,07,29,10.90
2010,06,16,07,30,11.00
2010,06,16,07,31,11.00
2010,06,16,07,32,11.10
2010,06,16,07,33,11.20
2010,06,16,07,34,11.20
2010,06,16,07,35,11.30
2010,06,16,07,36,11.30
2010,06,16,07,37,11.40
2010,06,16,07,38,11.40
2010,06,16,07,39,11.50
2010,06,16,07,40,11.50
2010,06,16,07,41,11.60
2010,06,16,07,42,11.60
2010,06,16,07,43,11.60
2010,06,16,07,44,11.70
2010,06,16,07,45,11.70
2010,06,16,07,46,11.80
2010,06,16,07,47,11.80
2010,06,16,07,48,11.90
2010,06,16,07,49,11.90
2010,06,16,07,50,12.00
2010,06,16,07,51,12.00
2010,06,16,07,52,12.10
2010,06,16,07,53,12.10
2010,06,16,07,54,12.20
2010,06,16,07,55,12.20
2010,06,16,07,56,12.20
2010,06,16,07,57,12.30
2010,06,16,07,58,12.30
2010,06,16,07,59,12.30
2010,06,16,08,00,12.40
2010,06,16,08,01,12.40
2010,06,16,08,02,12.50
2010,06,16,08,03,12.50
2010,06,16,08,04,12.60
2010,06,16,08,05,12.60
2010,06,16,08,06,12.60
2010,06,16,08,07,12.60
2010,06,16,08,08,12.70
2010,06,16,08,09,12.70
2010,06,16,08,10,12.70
2010,06,16,08,11,12.80
2010,06,16,08,12,12.80
2010,06,16,08,13,12.80
2010,06,16,08,14,12.90
2010,06,16,08,15,12.90
2010,06,16,08,16,12.90
2010,06,16,08,17,12.90
2010,06,16,08,18,12.90
2010,06,16,08,19,12.90
2010,06,16,08,20,13.00
2010,06,16,08,21,13.00
2010,06,16,08,22,13.00
2010,06,16,08,23,13.00
2010,06,16,08,24,13.10
2010,06,16,08,25,13.10
2010,06,16,08,26,13.10
2010,06,16,08,27,13.20
2010,06,16,08,28,13.20
2010,06,16,08,29,13.20
2010,06,16,08,30,13.20
2010,06,16,08,31,13.20
2010,06,16,08,32,13.20
2010,06,16,08,33,13.20
2010,06,16,08,34,13.20
2010,06,16,08,35,13.20
2010,06,16,08,36,13.20
2010,06,16,08,37,13.20
2010,06,16,08,38,13.20
2010,06,16,08,39,13.20
2010,06,16,08,40,13.20
2010,06,16,08,41,13.20
2010,06,16,08,42,13.30
2010,06,16,08,43,13.30
2010,06,16,08,44,13.30
2010,06,16,08,45,13.40
2010,06,16,08,46,13.40
2010,06,16,08,47,13.40
2010,06,16,08,48,13.50
2010,06,16,08,49,13.50
2010,06,16,08,50,13.50
2010,06,16,08,51,13.50
2010,06,16,08,52,13.60
2010,06,16,08,53,13.60
2010,06,16,08,54,13.60
2010,06,16,08,55,13.60
2010,06,16,08,56,13.60
2010,06,16,08,57,13.60
2010,06,16,08,58,13.60
2010,06,16,08,59,13.60
2010,06,16,09,00,13.60
2010,06,16,09,01,13.50
2010,06,16,09,02,13.50
2010,06,16,09,03,13.40
2010,06,16,09,04,13.40
2010,06,16,09,05,13.40
2010,06,16,09,06,13.40
2010,06,16,09,07,13.40
2010,06,16,09,08,13.50
2010,06,16,09,09,13.50
2010,06,16,09,10,13.50
2010,06,16,09,11,13.50
2010,06,16,09,12,13.50
2010,06,16,09,13,13.50
2010,06,16,09,14,13.50
2010,06,16,09,15,13.60
2010,06,16,09,16,13.60
2010,06,16,09,17,13.60
2010,06,16,09,18,13.60
2010,06,16,09,19,13.60
2010,06,16,09,20,13.60
2010,06,16,09,21,13.70
2010,06,16,09,22,13.70
2010,06,16,09,23,13.80
2010,06,16,09,24,13.80
2010,06,16,09,25,13.80
2010,06,16,09,26,13.90
2010,06,16,09,27,13.90
2010,06,16,09,28,14.00
2010,06,16,09,29,14.00
2010,06,16,09,30,14.10
2010,06,16,09,31,14.10
2010,06,16,09,32,14.20
2010,06,16,09,33,14.20
2010,06,16,09,34,14.20
2010,06,16,09,35,14.20
2010,06,16,09,36,14.20
2010,06,16,09,37,14.20
2010,06,16,09,38,14.20
2010,06,16,09,39,14.30
2010,06,16,09,40,14.20
2010,06,16,09,41,14.20
2010,06,16,09,42,14.20
2010,06,16,09,43,14.20
2010,06,16,09,44,14.20
2010,06,16,09,45,14.20
2010,06,16,09,46,14.20
2010,06,16,09,47,14.20
2010,06,16,09,48,14.20
2010,06,16,09,49,14.20
2010,06,16,09,50,14.20
2010,06,16,09,51,14.20
2010,06,16,09,52,14.30
2010,06,16,09,53,14.30
2010,06,16,09,54,14.30
2010,06,16,09,55,14.40
2010,06,16,09,56,14.50
2010,06,16,09,57,14.60
2010,06,16,09,58,14.60
2010,06,16,09,59,14.70
2010,06,16,10,00,14.70
2010,06,16,10,01,14.70
2010,06,16,10,02,14.70
2010,06,16,10,03,14.80
2010,06,16,10,04,14.80
2010,06,16,10,05,14.80
2010,06,16,10,06,14.80
2010,06,16,10,07,14.80
2010,06,16,10,08,14.80
2010,06,16,10,09,14.80
2010,06,16,10,10,14.80
2010,06,16,10,11,14.80
2010,06,16,10,12,14.80
2010,06,16,10,13,14.70
2010,06,16,10,14,14.70
2010,06,16,10,15,14.70
2010,06,16,10,16,14.70
2010,06,16,10,17,14.80
2010,06,16,10,18,14.80
2010,06,16,10,19,14.80
2010,06,16,10,20,14.80
2010,06,16,10,21,14.80
2010,06,16,10,22,14.80
2010,06,16,10,23,14.90
2010,06,16,10,24,14.90
2010,06,16,10,25,14.80
2010,06,16,10,26,14.90
2010,06,16,10,27,14.90
2010,06,16,10,28,14.90
2010,06,16,10,29,14.90
2010,06,16,10,30,14.90
2010,06,16,10,31,14.80
2010,06,16,10,32,14.70
2010,06,16,10,33,14.70
2010,06,16,10,34,14.70
2010,06,16,10,35,14.70
2010,06,16,10,36,14.70
2010,06,16,10,37,14.70
2010,06,16,10,38,14.70
2010,06,16,10,39,14.70
2010,06,16,10,40,14.70
2010,06,16,10,41,14.70
2010,06,16,10,42,14.70
2010,06,16,10,43,14.70
2010,06,16,10,44,14.60
2010,06,16,10,45,14.60
2010,06,16,10,46,14.60
2010,06,16,10,47,14.60
2010,06,16,10,48,14.60
2010,06,16,10,49,14.60
2010,06,16,10,50,14.70
2010,06,16,10,51,14.80
2010,06,16,10,52,14.70
2010,06,16,10,53,14.70
2010,06,16,10,54,14.80
2010,06,16,10,55,14.70
2010,06,16,10,56,14.70
2010,06,16,10,57,14.70
2010,06,16,10,58,14.70
2010,06,16,10,59,14.70
2010,06,16,11,00,14.60
2010,06,16,11,01,14.50
2010,06,16,11,02,14.40
2010,06,16,11,03,14.40
2010,06,16,11,04,14.40
2010,06,16,11,05,14.50
2010,06,16,11,06,14.50
2010,06,16,11,07,14.50
2010,06,16,11,08,14.50
2010,06,16,11,09,14.40
2010,06,16,11,10,14.30
2010,06,16,11,11,14.20
2010,06,16,11,12,14.20
2010,06,16,11,13,14.10
2010,06,16,11,14,14.10
2010,06,16,11,15,14.10
2010,06,16,11,16,14.10
2010,06,16,11,17,14.10
2010,06,16,11,18,14.10
2010,06,16,11,19,14.10
2010,06,16,11,20,14.10
2010,06,16,11,21,14.20
2010,06,16,11,22,14.20
2010,06,16,11,23,14.20
2010,06,16,11,24,14.20
2010,06,16,11,25,14.20
2010,06,16,11,26,14.20
2010,06,16,11,27,14.30
2010,06,16,11,28,14.30
2010,06,16,11,29,14.30
2010,06,16,11,30,14.20
2010,06,16,11,31,14.20
2010,06,16,11,32,14.30
2010,06,16,11,33,14.30
2010,06,16,11,34,14.40
2010,06,16,11,35,14.40
2010,06,16,11,36,14.30
2010,06,16,11,37,14.20
2010,06,16,11,38,14.00
2010,06,16,11,39,14.00
2010,06,16,11,40,14.00
2010,06,16,11,41,14.00
2010,06,16,11,42,14.10
2010,06,16,11,43,14.10
2010,06,16,11,44,14.20
2010,06,16,11,45,14.20
2010,06,16,11,46,14.10
2010,06,16,11,47,14.00
2010,06,16,11,48,13.90
2010,06,16,11,49,14.00
2010,06,16,11,50,14.10
2010,06,16,11,51,14.20
2010,06,16,11,52,14.30
2010,06,16,11,53,14.40
2010,06,16,11,54,14.50
2010,06,16,11,55,14.50
2010,06,16,11,56,14.40
2010,06,16,11,57,14.50
2010,06,16,11,58,14.60
2010,06,16,11,59,14.70
2010,06,16,12,00,14.80
2010,06,16,12,01,14.80
2010,06,16,12,02,14.70
2010,06,16,12,03,14.70
2010,06,16,12,04,14.60
2010,06,16,12,05,14.60
2010,06,16,12,06,14.50
2010,06,16,12,07,14.50
2010,06,16,12,08,14.50
2010,06,16,12,09,14.50
2010,06,16,12,10,14.50
2010,06,16,12,11,14.40
2010,06,16,12,12,14.40
2010,06,16,12,13,14.30
2010,06,16,12,14,14.30
2010,06,16,12,15,14.30
2010,06,16,12,16,14.30
2010,06,16,12,17,14.30
2010,06,16,12,18,14.30
2010,06,16,12,19,14.30
2010,06,16,12,20,14.30
2010,06,16,12,21,14.30
2010,06,16,12,22,14.30
2010,06,16,12,23,14.20
2010,06,16,12,24,14.20
2010,06,16,12,25,14.10
2010,06,16,12,26,14.10
2010,06,16,12,27,14.10
2010,06,16,12,28,14.10
2010,06,16,12,29,14.10
2010,06,16,12,30,14.10
2010,06,16,12,31,14.10
2010,06,16,12,32,14.20
2010,06,16,12,33,14.20
2010,06,16,12,34,14.20
2010,06,16,12,35,14.30
2010,06,16,12,36,14.30
2010,06,16,12,37,14.40
2010,06,16,12,38,14.50
2010,06,16,12,39,14.60
2010,06,16,12,40,14.70
2010,06,16,12,41,14.70
2010,06,16,12,42,14.70
2010,06,16,12,43,14.80
2010,06,16,12,44,14.80
2010,06,16,12,45,14.90
2010,06,16,12,46,15.00
2010,06,16,12,47,15.10
2010,06,16,12,48,15.20
2010,06,16,12,49,15.20
2010,06,16,12,50,15.10
2010,06,16,12,51,15.10
2010,06,16,12,52,15.10
2010,06,16,12,53,15.10
2010,06,16,12,54,15.10
2010,06,16,12,55,15.00
2010,06,16,12,56,15.00
2010,06,16,12,57,15.10
2010,06,16,12,58,15.10
2010,06,16,12,59,15.10
2010,06,16,13,00,15.20
2010,06,16,13,01,15.20
2010,06,16,13,02,15.30
2010,06,16,13,03,15.40
2010,06,16,13,04,15.50
2010,06,16,13,05,15.60
2010,06,16,13,06,15.60
2010,06,16,13,07,15.60
2010,06,16,13,08,15.50
2010,06,16,13,09,15.30
2010,06,16,13,10,15.20
2010,06,16,13,11,15.20
2010,06,16,13,12,15.20
2010,06,16,13,13,15.20
2010,06,16,13,14,15.20
2010,06,16,13,15,15.20
2010,06,16,13,16,15.20
2010,06,16,13,17,15.20
2010,06,16,13,18,15.20
2010,06,16,13,19,15.10
2010,06,16,13,20,15.20
2010,06,16,13,21,15.30
2010,06,16,13,22,15.40
2010,06,16,13,23,15.40
2010,06,16,13,24,15.40
2010,06,16,13,25,15.30
2010,06,16,13,26,15.30
2010,06,16,13,27,15.40
2010,06,16,13,28,15.40
2010,06,16,13,29,15.30
2010,06,16,13,30,15.20
2010,06,16,13,31,15.10
2010,06,16,13,32,15.00
2010,06,16,13,33,15.00
2010,06,16,13,34,15.00
2010,06,16,13,35,15.00
2010,06,16,13,36,15.00
2010,06,16,13,37,15.10
2010,06,16,13,38,15.20
2010,06,16,13,39,15.20
2010,06,16,13,40,15.20
2010,06,16,13,41,15.10
2010,06,16,13,42,15.10
2010,06,16,13,43,15.20
2010,06,16,13,44,15.20
2010,06,16,13,45,15.30
2010,06,16,13,46,15.40
2010,06,16,13,47,15.50
2010,06,16,13,48,15.60
2010,06,16,13,49,15.60
2010,06,16,13,50,15.50
2010,06,16,13,51,15.50
2010,06,16,13,52,15.50
2010,06,16,13,53,15.50
2010,06,16,13,54,15.50
2010,06,16,13,55,15.50
2010,06,16,13,56,15.50
2010,06,16,13,57,15.60
2010,06,16,13,58,15.60
2010,06,16,13,59,15.50
2010,06,16,14,00,15.40
2010,06,16,14,01,15.30
2010,06,16,14,02,15.30
2010,06,16,14,03,15.30
2010,06,16,14,04,15.30
2010,06,16,14,05,15.40
2010,06,16,14,06,15.50
2010,06,16,14,07,15.60
2010,06,16,14,08,15.80
2010,06,16,14,09,16.00
2010,06,16,14,10,16.10
2010,06,16,14,11,16.10
2010,06,16,14,12,16.00
2010,06,16,14,13,15.90
2010,06,16,14,14,15.80
2010,06,16,14,15,15.70
2010,06,16,14,16,15.70
2010,06,16,14,17,15.70
2010,06,16,14,18,15.70
2010,06,16,14,19,15.80
2010,06,16,14,20,15.90
2010,06,16,14,21,16.00
2010,06,16,14,22,16.00
2010,06,16,14,23,16.00
2010,06,16,14,24,16.10
2010,06,16,14,25,16.00
2010,06,16,14,26,16.00
2010,06,16,14,27,16.00
2010,06,16,14,28,15.90
2010,06,16,14,29,16.00
2010,06,16,14,30,16.00
2010,06,16,14,31,15.90
2010,06,16,14,32,15.90
2010,06,16,14,33,15.90
2010,06,16,14,34,15.90
2010,06,16,14,35,16.00
2010,06,16,14,36,16.10
2010,06,16,14,37,16.10
2010,06,16,14,38,16.10
2010,06,16,14,39,16.10
2010,06,16,14,40,16.10
2010,06,16,14,41,16.20
2010,06,16,14,42,16.20
2010,06,16,14,43,16.10
2010,06,16,14,44,16.10
2010,06,16,14,45,16.10
2010,06,16,14,46,16.10
2010,06,16,14,47,16.00
2010,06,16,14,48,15.90
2010,06,16,14,49,15.80
2010,06,16,14,50,15.70
2010,06,16,14,51,15.70
2010,06,16,14,52,15.80
2010,06,16,14,53,15.90
2010,06,16,14,54,16.00
2010,06,16,14,55,16.00
2010,06,16,14,56,16.00
2010,06,16,14,57,16.00
2010,06,16,14,58,15.80
2010,06,16,14,59,15.80
2010,06,16,15,00,15.80
2010,06,16,15,01,15.90
2010,06,16,15,02,15.90
2010,06,16,15,03,15.90
2010,06,16,15,04,15.70
2010,06,16,15,05,15.50
2010,06,16,15,06,15.30
2010,06,16,15,07,15.30
2010,06,16,15,08,15.30
2010,06,16,15,09,15.20
2010,06,16,15,10,15.10
2010,06,16,15,11,15.00
2010,06,16,15,12,14.90
2010,06,16,15,13,14.70
2010,06,16,15,14,14.50
2010,06,16,15,15,14.50
2010,06,16,15,16,14.40
2010,06,16,15,17,14.40
2010,06,16,15,18,14.40
2010,06,16,15,19,14.40
2010,06,16,15,20,14.40
2010,06,16,15,21,14.30
2010,06,16,15,22,14.20
2010,06,16,15,23,14.20
2010,06,16,15,24,14.20
2010,06,16,15,25,14.20
2010,06,16,15,26,14.30
2010,06,16,15,27,14.30
2010,06,16,15,28,14.30
2010,06,16,15,29,14.30
2010,06,16,15,30,14.40
2010,06,16,15,31,14.40
2010,06,16,15,32,14.40
2010,06,16,15,33,14.50
2010,06,16,15,34,14.60
2010,06,16,15,35,14.60
2010,06,16,15,36,14.50
2010,06,16,15,37,14.50
2010,06,16,15,38,14.50
2010,06,16,15,39,14.60
2010,06,16,15,40,14.60
2010,06,16,15,41,14.60
2010,06,16,15,42,14.60
2010,06,16,15,43,14.60
2010,06,16,15,44,14.60
2010,06,16,15,45,14.60
2010,06,16,15,46,14.70
2010,06,16,15,47,14.80
2010,06,16,15,48,14.80
2010,06,16,15,49,14.80
2010,06,16,15,50,14.80
2010,06,16,15,51,14.70
2010,06,16,15,52,14.70
2010,06,16,15,53,14.80
2010,06,16,15,54,14.90
2010,06,16,15,55,14.90
2010,06,16,15,56,15.00
2010,06,16,15,57,15.10
2010,06,16,15,58,15.10
2010,06,16,15,59,15.00
2010,06,16,16,00,14.90
2010,06,16,16,01,14.90
2010,06,16,16,02,14.80
2010,06,16,16,03,14.70
2010,06,16,16,04,14.70
2010,06,16,16,05,14.60
2010,06,16,16,06,14.60
2010,06,16,16,07,14.60
2010,06,16,16,08,14.60
2010,06,16,16,09,14.70
2010,06,16,16,10,14.70
2010,06,16,16,11,14.70
2010,06,16,16,12,14.70
2010,06,16,16,13,14.70
2010,06,16,16,14,14.80
2010,06,16,16,15,14.80
2010,06,16,16,16,14.90
2010,06,16,16,17,14.90
2010,06,16,16,18,15.00
2010,06,16,16,19,15.10
2010,06,16,16,20,15.10
2010,06,16,16,21,15.10
2010,06,16,16,22,15.10
2010,06,16,16,23,15.10
2010,06,16,16,24,15.00
2010,06,16,16,25,15.00
2010,06,16,16,26,15.00
2010,06,16,16,27,15.10
2010,06,16,16,28,15.10
2010,06,16,16,29,15.10
2010,06,16,16,30,15.10
2010,06,16,16,31,15.10
2010,06,16,16,32,15.10
2010,06,16,16,33,15.20
2010,06,16,16,34,15.20
2010,06,16,16,35,15.30
2010,06,16,16,36,15.40
2010,06,16,16,37,15.30
2010,06,16,16,38,15.30
2010,06,16,16,39,15.30
2010,06,16,16,40,15.30
2010,06,16,16,41,15.30
2010,06,16,16,42,15.30
2010,06,16,16,43,15.30
2010,06,16,16,44,15.40
2010,06,16,16,45,15.40
2010,06,16,16,46,15.40
2010,06,16,16,47,15.40
2010,06,16,16,48,15.40
2010,06,16,16,49,15.50
2010,06,16,16,50,15.60
2010,06,16,16,51,15.70
2010,06,16,16,52,15.70
2010,06,16,16,53,15.70
2010,06,16,16,54,15.70
2010,06,16,16,55,15.70
2010,06,16,16,56,15.70
2010,06,16,16,57,15.60
2010,06,16,16,58,15.60
2010,06,16,16,59,15.60
2010,06,16,17,00,15.50
2010,06,16,17,01,15.40
2010,06,16,17,02,15.40
2010,06,16,17,03,15.40
2010,06,16,17,04,15.40
2010,06,16,17,05,15.40
2010,06,16,17,06,15.40
2010,06,16,17,07,15.30
2010,06,16,17,08,15.40
2010,06,16,17,09,15.40
2010,06,16,17,10,15.40
2010,06,16,17,11,15.50
2010,06,16,17,12,15.60
2010,06,16,17,13,15.70
2010,06,16,17,14,15.80
2010,06,16,17,15,15.80
2010,06,16,17,16,15.80
2010,06,16,17,17,15.70
2010,06,16,17,18,15.70
2010,06,16,17,19,15.70
2010,06,16,17,20,15.70
2010,06,16,17,21,15.70